QPF
0.00 0.00 0.00 0.00 0.00 0.00 0.00 0.00 0.00 0.00 0.00 0.00 0.00 0.00 0.00 0.00 0.00 0.00 0.00 0.00 0.00 0.00 0.00 0.00 0.00 0.00 0.00 0.00 0.00 0.00 0.00 0.00 0.00 0.00 0.00 0.00 0.00 0.00 0.00 0.00 0.00 0.00 0.00 0.00
0.00 0.00 0.00 0.00 0.00 0.00 0.00 0.00 0.00 0.00 0.00 0.00 0.00 0.00 0.00 0.00 0.00 0.00 0.00 0.00 0.00 0.00 0.00 0.00 0.00 0.00 0.00 0.00 0.00 0.00 0.00 0.00 0.00 0.00 0.00 0.00 0.00 0.00 0.00 0.00 0.00 0.00 0.00 0.00
0.00 0.00 0.00 0.00 0.00 0.00 0.00 0.00 0.00 0.00 0.00 0.00 0.00 0.00 0.00 0.00 0.00 0.00 0.00 0.00 0.00 0.00 0.00 0.00 0.00 0.00 0.00 0.00 0.00 0.00 0.00 0.00 0.00 0.00 0.00 0.00 0.00 0.00 0.00 0.00 0.00 0.00 0.00 0.00
0.00 0.00 0.00 0.00 0.00 0.00 0.00 0.00 0.00 0.00 0.00 0.00 0.00 0.00 0.00 0.00 0.00 0.00 0.00 0.00 0.00 0.00 0.00 0.00 0.00 0.00 0.00 0.00 0.00 0.00 0.00 0.00 0.00 0.00 0.00 0.00 0.00 0.00 0.00 0.00 0.00 0.00 0.00 0.00
0.00 0.00 0.00 0.00 0.00 0.00 0.00 0.00 0.00 0.00 0.00 0.00 0.00 0.00 0.00 0.00 0.00 0.00 0.00 0.00 0.00 0.00 0.00 0.00 0.00 0.00 0.00 0.00 0.00 0.00 0.00 0.00 0.00 0.00 0.00 0.00 0.00 0.00 0.00 0.00 0.00 0.00 0.00 0.00
0.00 0.00 0.00 0.00 0.00 0.00 0.00 0.00 0.00 0.00 0.00 0.00 0.00 0.00 0.00 0.00 0.00 0.00 0.00 0.00 0.00 0.00 0.00 0.00 0.00 0.00 0.00 0.00 0.00 0.00 0.00 0.00 0.00 0.00 0.00 0.00 0.00 0.00 0.00 0.00 0.00 0.00 0.00 0.00
0.00 0.00 0.00 0.00 0.00 0.00 0.00 0.00 0.00 0.00 0.00 0.00 0.00 0.00 0.00 0.00 0.00 0.00 0.00 0.00 0.00 0.00 0.00 0.00 0.00 0.00 0.00 0.00 0.00 0.00 0.00 0.00 0.00 0.00 0.00 0.00 0.00 0.00 0.00 0.00 0.00 0.00 0.00 0.00
0.00 0.00 0.00 0.00 0.00 0.00 0.00 0.00 0.00 0.00 0.00 0.00 0.00 0.00 0.00 0.00 0.00 0.00 0.00 0.00 0.00 0.00 0.00 0.00 0.00 0.00 0.00 0.00 0.00 0.00 0.00 0.00 0.00 0.00 0.00 0.00 0.00 0.00 0.00 0.00 0.00 0.00 0.00 0.00
0.00 0.00 0.00 0.00 0.00 0.00 0.00 0.00 0.00 0.00 0.00 0.00 0.00 0.00 0.00 0.00 0.00 0.00 0.00 0.00 0.00 0.00 0.00 0.00 0.00 0.00 0.00 0.00 0.00 0.00 0.00 0.00 0.00 0.00 0.00 0.00 0.00 0.00 0.00 0.00 0.00 0.00 0.00 0.01
0.00 0.00 0.00 0.00 0.00 0.00 0.00 0.00 0.00 0.00 0.00 0.00 0.00 0.00 0.00 0.00 0.00 0.00 0.00 0.00 0.00 0.00 0.00 0.00 0.00 0.00 0.00 0.00 0.00 0.00 0.00 0.00 0.00 0.00 0.00 0.00 0.00 0.00 0.00 0.00 0.01 0.01 0.02 0.02
0.00 0.00 0.00 0.00 0.00 0.00 0.00 0.00 0.00 0.00 0.00 0.00 0.00 0.00 0.00 0.00 0.00 0.00 0.00 0.00 0.00 0.00 0.00 0.00 0.00 0.00 0.00 0.00 0.00 0.00 0.00 0.00 0.00 0.00 0.00 0.00 0.00 0.00 0.00 0.00 0.01 0.02 0.03 0.03
0.00 0.00 0.00 0.00 0.00 0.00 0.00 0.00 0.00 0.00 0.00 0.00 0.00 0.00 0.00 0.00 0.00 0.00 0.00 0.00 0.00 0.00 0.00 0.00 0.00 0.00 0.00 0.00 0.00 0.00 0.00 0.00 0.00 0.00 0.00 0.00 0.00 0.00 0.00 0.00 0.01 0.01 0.02 0.02
0.00 0.00 0.00 0.00 0.00 0.00 0.00 0.00 0.00 0.00 0.00 0.00 0.00 0.00 0.00 0.00 0.00 0.00 0.00 0.00 0.00 0.00 0.00 0.00 0.00 0.00 0.00 0.00 0.00 0.00 0.00 0.00 0.00 0.00 0.00 0.01 0.01 0.01 0.01 0.01 0.00 0.00 0.01 0.01
0.00 0.00 0.00 0.00 0.00 0.00 0.00 0.00 0.00 0.00 0.00 0.00 0.00 0.00 0.00 0.00 0.00 0.00 0.00 0.00 0.00 0.00 0.00 0.00 0.00 0.00 0.00 0.00 0.00 0.00 0.00 0.00 0.00 0.00 0.01 0.01 0.01 0.01 0.01 0.02 0.01 0.00 0.00 0.01
0.00 0.00 0.00 0.00 0.00 0.00 0.00 0.00 0.00 0.00 0.00 0.00 0.00 0.00 0.00 0.00 0.00 0.00 0.00 0.00 0.00 0.00 0.00 0.00 0.00 0.00 0.00 0.00 0.00 0.00 0.00 0.00 0.01 0.01 0.01 0.01 0.01 0.01 0.01 0.02 0.01 0.01 0.01 0.00
0.00 0.00 0.00 0.00 0.00 0.00 0.00 0.00 0.00 0.00 0.00 0.00 0.00 0.00 0.00 0.00 0.00 0.00 0.00 0.00 0.00 0.00 0.00 0.00 0.00 0.00 0.00 0.00 0.00 0.00 0.00 0.00 0.01 0.01 0.01 0.01 0.01 0.02 0.02 0.02 0.02 0.02 0.02 0.01
0.00 0.00 0.00 0.00 0.00 0.00 0.00 0.00 0.00 0.00 0.00 0.00 0.00 0.00 0.00 0.00 0.00 0.00 0.00 0.00 0.00 0.00 0.00 0.00 0.00 0.00 0.00 0.00 0.00 0.01 0.01 0.01 0.01 0.01 0.01 0.02 0.02 0.02 0.03 0.03 0.03 0.02 0.01 0.01
0.00 0.00 0.00 0.00 0.00 0.00 0.00 0.00 0.00 0.00 0.00 0.00 0.00 0.00 0.00 0.00 0.00 0.00 0.00 0.00 0.00 0.00 0.00 0.00 0.00 0.00 0.00 0.00 0.00 0.00 0.01 0.01 0.01 0.02 0.02 0.02 0.02 0.02 0.02 0.03 0.03 0.02 0.01 0.01
0.00 0.00 0.00 0.00 0.00 0.00 0.00 0.00 0.00 0.00 0.00 0.00 0.00 0.00 0.00 0.00 0.00 0.00 0.00 0.00 0.00 0.00 0.00 0.00 0.00 0.00 0.00 0.00 0.00 0.01 0.02 0.02 0.02 0.01 0.01 0.01 0.01 0.01 0.01 0.02 0.02 0.02 0.01 0.01
0.00 0.00 0.00 0.00 0.00 0.00 0.00 0.00 0.00 0.00 0.00 0.00 0.00 0.00 0.00 0.00 0.00 0.00 0.00 0.00 0.00 0.00 0.00 0.00 0.00 0.00 0.00 0.00 0.01 0.02 0.02 0.02 0.01 0.01 0.01 0.01 0.02 0.01 0.02 0.02 0.02 0.02 0.02 0.02
0.00 0.00 0.00 0.00 0.00 0.00 0.00 0.00 0.00 0.00 0.00 0.00 0.00 0.00 0.00 0.00 0.00 0.00 0.00 0.00 0.00 0.00 0.00 0.00 0.00 0.00 0.00 0.01 0.01 0.01 0.01 0.01 0.01 0.02 0.02 0.02 0.02 0.02 0.01 0.01 0.02 0.02 0.02 0.02
0.00 0.00 0.00 0.00 0.00 0.00 0.00 0.00 0.00 0.00 0.00 0.00 0.00 0.00 0.00 0.00 0.00 0.00 0.00 0.00 0.00 0.00 0.00 0.00 0.00 0.00 0.01 0.01 0.01 0.01 0.01 0.01 0.01 0.01 0.02 0.02 0.02 0.02 0.02 0.02 0.02 0.02 0.02 0.02
0.00 0.00 0.00 0.00 0.00 0.00 0.00 0.00 0.00 0.00 0.00 0.00 0.00 0.00 0.00 0.00 0.00 0.00 0.00 0.00 0.00 0.00 0.00 0.00 0.00 0.00 0.01 0.01 0.01 0.00 0.01 0.01 0.01 0.02 0.02 0.02 0.02 0.02 0.03 0.02 0.02 0.02 0.03 0.02
0.00 0.00 0.00 0.00 0.00 0.00 0.00 0.00 0.00 0.00 0.00 0.00 0.00 0.00 0.00 0.00 0.00 0.00 0.00 0.00 0.00 0.00 0.00 0.00 0.00 0.00 0.01 0.00 0.00 0.00 0.01 0.01 0.01 0.02 0.02 0.02 0.02 0.02 0.02 0.02 0.03 0.02 0.02 0.02
0.00 0.00 0.00 0.00 0.00 0.00 0.00 0.00 0.00 0.00 0.00 0.00 0.00 0.00 0.00 0.00 0.00 0.00 0.00 0.00 0.00 0.00 0.00 0.00 0.00 0.00 0.00 0.00 0.00 0.01 0.01 0.01 0.02 0.02 0.02 0.02 0.02 0.02 0.02 0.02 0.03 0.03 0.02 0.02
0.00 0.00 0.00 0.00 0.00 0.00 0.00 0.00 0.00 0.00 0.00 0.00 0.00 0.00 0.00 0.00 0.00 0.00 0.00 0.00 0.00 0.00 0.00 0.00 0.00 0.00 0.00 0.00 0.00 0.01 0.01 0.01 0.01 0.01 0.01 0.01 0.02 0.02 0.02 0.02 0.02 0.02 0.02 0.02
0.00 0.00 0.00 0.00 0.00 0.00 0.00 0.00 0.00 0.00 0.00 0.00 0.00 0.00 0.00 0.00 0.00 0.00 0.00 0.00 0.00 0.00 0.00 0.00 0.00 0.00 0.00 0.00 0.00 0.01 0.01 0.01 0.01 0.01 0.01 0.01 0.02 0.02 0.02 0.02 0.02 0.02 0.02 0.02
MSLP
1018.93 1019.24 1019.50 1019.72 1019.87 1019.94 1019.93 1019.82 1019.64 1019.37 1019.08 1018.77 1018.49 1018.28 1018.16 1018.14 1018.21 1018.35 1018.53 1018.72 1018.87 1018.96 1018.97 1018.89 1018.75 1018.53 1018.27 1017.97 1017.65 1017.28 1016.89 1016.45 1015.95 1015.40 1014.79 1014.14 1013.46 1012.77 1012.09 1011.43 1010.81 1010.22 1009.67 1009.14
1019.08 1019.24 1019.33 1019.35 1019.32 1019.24 1019.12 1018.99 1018.84 1018.69 1018.56 1018.45 1018.39 1018.38 1018.43 1018.53 1018.67 1018.83 1018.98 1019.10 1019.16 1019.17 1019.09 1018.95 1018.75 1018.48 1018.18 1017.84 1017.47 1017.06 1016.61 1016.12 1015.56 1014.95 1014.28 1013.57 1012.84 1012.09 1011.36 1010.66 1009.99 1009.36 1008.77 1008.21
1019.26 1019.26 1019.17 1019.01 1018.81 1018.61 1018.44 1018.30 1018.21 1018.19 1018.22 1018.31 1018.45 1018.63 1018.82 1019.02 1019.21 1019.36 1019.47 1019.51 1019.49 1019.40 1019.24 1019.01 1018.74 1018.42 1018.06 1017.67 1017.25 1016.78 1016.28 1015.72 1015.10 1014.43 1013.71 1012.95 1012.17 1011.39 1010.62 1009.88 1009.17 1008.50 1007.88 1007.29
1019.44 1019.28 1019.03 1018.72 1018.41 1018.13 1017.93 1017.83 1017.82 1017.93 1018.12 1018.38 1018.69 1019.01 1019.31 1019.57 1019.78 1019.91 1019.96 1019.92 1019.80 1019.61 1019.36 1019.06 1018.71 1018.32 1017.91 1017.46 1016.97 1016.45 1015.88 1015.25 1014.58 1013.86 1013.09 1012.30 1011.49 1010.68 1009.88 1009.11 1008.38 1007.68 1007.03 1006.41
1019.56 1019.27 1018.90 1018.50 1018.12 1017.82 1017.63 1017.59 1017.68 1017.91 1018.24 1018.65 1019.07 1019.49 1019.85 1020.14 1020.32 1020.41 1020.38 1020.26 1020.05 1019.77 1019.44 1019.05 1018.64 1018.19 1017.71 1017.20 1016.65 1016.06 1015.42 1014.74 1014.01 1013.24 1012.44 1011.62 1010.79 1009.96 1009.15 1008.37 1007.62 1006.90 1006.21 1005.56
1019.56 1019.20 1018.76 1018.31 1017.92 1017.65 1017.52 1017.56 1017.76 1018.10 1018.54 1019.04 1019.54 1020.00 1020.38 1020.64 1020.78 1020.80 1020.70 1020.49 1020.20 1019.84 1019.43 1018.98 1018.51 1018.00 1017.46 1016.89 1016.28 1015.63 1014.93 1014.19 1013.41 1012.60 1011.77 1010.92 1010.09 1009.26 1008.44 1007.65 1006.89 1006.15 1005.44 1004.75
1019.43 1019.02 1018.58 1018.15 1017.81 1017.61 1017.57 1017.71 1018.01 1018.44 1018.95 1019.50 1020.03 1020.48 1020.83 1021.04 1021.11 1021.05 1020.87 1020.58 1020.21 1019.79 1019.33 1018.83 1018.31 1017.76 1017.18 1016.56 1015.89 1015.18 1014.42 1013.62 1012.80 1011.95 1011.09 1010.24 1009.39 1008.56 1007.75 1006.96 1006.18 1005.43 1004.69 1003.98
1019.14 1018.76 1018.36 1018.01 1017.77 1017.67 1017.74 1017.98 1018.37 1018.86 1019.41 1019.97 1020.47 1020.88 1021.15 1021.29 1021.28 1021.13 1020.87 1020.52 1020.10 1019.64 1019.14 1018.62 1018.07 1017.49 1016.87 1016.20 1015.48 1014.72 1013.91 1013.07 1012.20 1011.32 1010.44 1009.57 1008.72 1007.88 1007.07 1006.28 1005.50 1004.73 1003.97 1003.23
1018.75 1018.44 1018.14 1017.92 1017.80 1017.83 1018.02 1018.35 1018.80 1019.32 1019.86 1020.38 1020.82 1021.15 1021.33 1021.38 1021.28 1021.05 1020.73 1020.33 1019.88 1019.40 1018.89 1018.35 1017.79 1017.19 1016.54 1015.84 1015.09 1014.28 1013.42 1012.53 1011.63 1010.72 1009.82 1008.93 1008.07 1007.24 1006.42 1005.62 1004.84 1004.06 1003.28 1002.52
1018.32 1018.12 1017.97 1017.89 1017.92 1018.08 1018.37 1018.77 1019.25 1019.76 1020.27 1020.72 1021.06 1021.28 1021.37 1021.31 1021.13 1020.84 1020.47 1020.05 1019.58 1019.10 1018.59 1018.05 1017.48 1016.88 1016.21 1015.48 1014.69 1013.85 1012.96 1012.04 1011.10 1010.16 1009.24 1008.35 1007.48 1006.64 1005.82 1005.02 1004.22 1003.44 1002.66 1001.89
1017.94 1017.89 1017.88 1017.95 1018.13 1018.40 1018.77 1019.21 1019.69 1020.17 1020.59 1020.94 1021.18 1021.28 1021.26 1021.11 1020.86 1020.53 1020.13 1019.70 1019.24 1018.76 1018.26 1017.74 1017.17 1016.55 1015.87 1015.12 1014.31 1013.43 1012.51 1011.57 1010.61 1009.65 1008.72 1007.82 1006.95 1006.11 1005.29 1004.48 1003.69 1002.91 1002.13 1001.37
1017.68 1017.77 1017.92 1018.13 1018.43 1018.79 1019.21 1019.65 1020.09 1020.49 1020.82 1021.05 1021.16 1021.16 1021.04 1020.81 1020.51 1020.14 1019.74 1019.31 1018.87 1018.41 1017.92 1017.40 1016.84 1016.21 1015.52 1014.75 1013.91 1013.01 1012.07 1011.11 1010.15 1009.19 1008.26 1007.37 1006.50 1005.67 1004.86 1004.07 1003.28 1002.51 1001.75 1001.00
1017.58 1017.80 1018.08 1018.41 1018.79 1019.21 1019.63 1020.04 1020.41 1020.72 1020.92 1021.03 1021.02 1020.91 1020.71 1020.43 1020.09 1019.71 1019.31 1018.90 1018.47 1018.03 1017.56 1017.04 1016.47 1015.83 1015.12 1014.33 1013.47 1012.56 1011.62 1010.66 1009.70 1008.77 1007.86 1006.98 1006.14 1005.33 1004.54 1003.77 1003.01 1002.26 1001.52 1000.79
1017.63 1017.95 1018.32 1018.73 1019.16 1019.59 1019.99 1020.34 1020.61 1020.80 1020.89 1020.88 1020.76 1020.56 1020.29 1019.97 1019.61 1019.24 1018.86 1018.46 1018.05 1017.62 1017.16 1016.64 1016.05 1015.39 1014.65 1013.84 1012.98 1012.07 1011.13 1010.19 1009.26 1008.36 1007.50 1006.66 1005.87 1005.09 1004.34 1003.61 1002.88 1002.16 1001.45 1000.75
1017.78 1018.17 1018.60 1019.04 1019.47 1019.88 1020.22 1020.48 1020.66 1020.73 1020.71 1020.58 1020.38 1020.11 1019.79 1019.45 1019.09 1018.73 1018.36 1017.99 1017.60 1017.17 1016.70 1016.17 1015.56 1014.88 1014.12 1013.30 1012.43 1011.52 1010.61 1009.71 1008.83 1007.98 1007.17 1006.40 1005.66 1004.94 1004.24 1003.55 1002.86 1002.18 1001.50 1000.83
1017.98 1018.39 1018.83 1019.27 1019.68 1020.02 1020.29 1020.46 1020.53 1020.49 1020.36 1020.15 1019.88 1019.56 1019.22 1018.87 1018.53 1018.18 1017.84 1017.48 1017.10 1016.67 1016.19 1015.64 1015.01 1014.30 1013.53 1012.69 1011.83 1010.95 1010.07 1009.21 1008.39 1007.61 1006.87 1006.17 1005.50 1004.85 1004.21 1003.56 1002.92 1002.28 1001.63 1000.98
1018.16 1018.57 1018.98 1019.38 1019.73 1020.00 1020.18 1020.26 1020.22 1020.10 1019.88 1019.60 1019.28 1018.94 1018.59 1018.24 1017.91 1017.59 1017.26 1016.92 1016.54 1016.11 1015.62 1015.05 1014.40 1013.68 1012.89 1012.06 1011.21 1010.36 1009.53 1008.72 1007.97 1007.26 1006.59 1005.96 1005.36 1004.77 1004.18 1003.59 1003.00 1002.38 1001.77 1001.14
1018.29 1018.65 1019.02 1019.36 1019.63 1019.82 1019.91 1019.89 1019.77 1019.57 1019.29 1018.96 1018.61 1018.25 1017.90 1017.57 1017.26 1016.95 1016.64 1016.31 1015.94 1015.50 1015.00 1014.42 1013.76 1013.04 1012.26 1011.44 1010.62 1009.80 1009.01 1008.27 1007.57 1006.92 1006.32 1005.76 1005.21 1004.67 1004.14 1003.59 1003.03 1002.45 1001.86 1001.26
1018.35 1018.66 1018.95 1019.21 1019.40 1019.50 1019.50 1019.40 1019.21 1018.94 1018.62 1018.26 1017.89 1017.53 1017.19 1016.87 1016.57 1016.28 1015.98 1015.66 1015.29 1014.86 1014.36 1013.78 1013.13 1012.41 1011.65 1010.87 1010.08 1009.30 1008.56 1007.86 1007.21 1006.61 1006.06 1005.53 1005.03 1004.53 1004.02 1003.51 1002.98 1002.43 1001.86 1001.29
1018.36 1018.59 1018.80 1018.97 1019.08 1019.09 1019.01 1018.84 1018.59 1018.28 1017.92 1017.54 1017.16 1016.79 1016.45 1016.14 1015.85 1015.57 1015.28 1014.97 1014.61 1014.19 1013.70 1013.14 1012.51 1011.83 1011.10 1010.35 1009.60 1008.87 1008.17 1007.51 1006.89 1006.32 1005.79 1005.28 1004.79 1004.31 1003.82 1003.32 1002.81 1002.28 1001.75 1001.21
1018.33 1018.48 1018.61 1018.70 1018.71 1018.65 1018.49 1018.26 1017.96 1017.61 1017.22 1016.82 1016.43 1016.06 1015.72 1015.41 1015.12 1014.84 1014.56 1014.25 1013.90 1013.50 1013.04 1012.51 1011.92 1011.28 1010.60 1009.90 1009.20 1008.51 1007.84 1007.20 1006.60 1006.04 1005.50 1004.99 1004.49 1004.00 1003.52 1003.02 1002.53 1002.03 1001.52 1001.01
1018.29 1018.36 1018.40 1018.40 1018.33 1018.19 1017.98 1017.69 1017.35 1016.96 1016.54 1016.12 1015.72 1015.33 1014.98 1014.66 1014.36 1014.08 1013.80 1013.50 1013.17 1012.79 1012.37 1011.88 1011.34 1010.76 1010.14 1009.49 1008.84 1008.18 1007.54 1006.92 1006.32 1005.75 1005.19 1004.66 1004.14 1003.63 1003.13 1002.63 1002.15 1001.67 1001.19 1000.73
1018.22 1018.21 1018.18 1018.09 1017.95 1017.74 1017.46 1017.13 1016.74 1016.32 1015.88 1015.44 1015.01 1014.61 1014.24 1013.91 1013.60 1013.31 1013.02 1012.73 1012.41 1012.07 1011.68 1011.24 1010.77 1010.24 1009.68 1009.10 1008.49 1007.87 1007.25 1006.64 1006.03 1005.44 1004.85 1004.28 1003.73 1003.19 1002.67 1002.17 1001.69 1001.23 1000.80 1000.38
1018.11 1018.03 1017.92 1017.76 1017.54 1017.27 1016.94 1016.56 1016.14 1015.69 1015.23 1014.77 1014.32 1013.90 1013.51 1013.15 1012.82 1012.52 1012.23 1011.94 1011.64 1011.32 1010.97 1010.59 1010.17 1009.71 1009.22 1008.68 1008.12 1007.54 1006.94 1006.33 1005.71 1005.10 1004.48 1003.88 1003.29 1002.72 1002.19 1001.68 1001.20 1000.77 1000.36 999.98
1017.92 1017.78 1017.60 1017.37 1017.09 1016.77 1016.39 1015.98 1015.53 1015.05 1014.57 1014.09 1013.62 1013.18 1012.77 1012.39 1012.05 1011.73 1011.43 1011.15 1010.86 1010.57 1010.26 1009.92 1009.56 1009.15 1008.71 1008.23 1007.72 1007.17 1006.59 1005.98 1005.36 1004.72 1004.09 1003.45 1002.84 1002.25 1001.69 1001.18 1000.71 1000.29 999.91 999.56
1017.64 1017.43 1017.19 1016.90 1016.58 1016.21 1015.80 1015.35 1014.88 1014.39 1013.90 1013.41 1012.93 1012.48 1012.06 1011.66 1011.30 1010.98 1010.67 1010.38 1010.11 1009.83 1009.55 1009.25 1008.92 1008.57 1008.17 1007.74 1007.26 1006.74 1006.18 1005.58 1004.96 1004.32 1003.67 1003.02 1002.39 1001.79 1001.22 1000.71 1000.24 999.82 999.45 999.12
1017.23 1016.97 1016.68 1016.35 1015.98 1015.58 1015.15 1014.69 1014.21 1013.72 1013.23 1012.74 1012.26 1011.81 1011.38 1010.98 1010.61 1010.28 1009.96 1009.67 1009.40 1009.13 1008.86 1008.59 1008.29 1007.96 1007.60 1007.20 1006.75 1006.26 1005.72 1005.14 1004.53 1003.89 1003.24 1002.59 1001.96 1001.35 1000.78 1000.26 999.80 999.38 999.01 998.68
Thickness
5607 5609 5607 5607 5606 5599 5593 5593 5590 5598 5598 5607 5602 5597 5593 5588 5583 5578 5573 5568 5562 5555 5549 5544 5539 5535 5531 5526 5521 5516 5511 5506 5502 5497 5492 5486 5481 5475 5470 5463 5457 5452 5446 5441
5601 5601 5595 5595 5601 5598 5595 5593 5589 5591 5593 5598 5593 5586 5582 5579 5573 5568 5563 5557 5551 5546 5540 5534 5528 5523 5519 5514 5509 5503 5496 5492 5487 5482 5476 5470 5464 5459 5453 5447 5441 5434 5428 5424
5584 5587 5590 5590 5605 5601 5596 5594 5590 5586 5589 5588 5584 5580 5575 5570 5564 5558 5552 5546 5540 5534 5528 5522 5517 5511 5506 5501 5495 5488 5482 5477 5471 5466 5460 5454 5448 5442 5436 5431 5426 5419 5414 5409
5570 5579 5575 5600 5608 5603 5596 5593 5588 5585 5582 5578 5575 5570 5564 5559 5552 5546 5540 5535 5528 5522 5516 5511 5505 5499 5493 5486 5479 5473 5467 5461 5455 5449 5444 5438 5432 5425 5420 5415 5410 5406 5401 5396
5555 5561 5570 5590 5597 5592 5586 5585 5583 5576 5573 5568 5562 5554 5549 5547 5541 5534 5528 5522 5515 5510 5504 5498 5491 5485 5478 5472 5465 5458 5452 5447 5440 5432 5427 5422 5416 5411 5406 5401 5398 5393 5389 5385
5544 5553 5561 5587 5593 5590 5583 5573 5574 5568 5562 5556 5548 5537 5536 5536 5529 5522 5516 5509 5504 5498 5491 5484 5478 5471 5463 5457 5450 5444 5439 5432 5425 5417 5410 5406 5401 5397 5392 5387 5385 5382 5379 5375
5539 5541 5558 5579 5581 5578 5566 5569 5563 5558 5552 5545 5534 5528 5526 5521 5515 5510 5504 5498 5492 5485 5477 5470 5464 5456 5448 5443 5436 5431 5425 5418 5411 5403 5396 5392 5389 5384 5380 5377 5374 5372 5370 5368
5532 5532 5555 5573 5567 5562 5561 5555 5552 5546 5541 5534 5526 5520 5514 5508 5502 5496 5490 5485 5479 5471 5464 5457 5449 5441 5435 5430 5425 5419 5411 5405 5398 5391 5385 5381 5376 5374 5370 5366 5364 5363 5362 5362
5552 5561 5560 5559 5557 5552 5547 5543 5539 5532 5528 5521 5514 5506 5501 5495 5488 5483 5477 5470 5464 5456 5450 5443 5434 5426 5420 5417 5411 5405 5398 5392 5386 5381 5375 5370 5366 5364 5361 5358 5355 5354 5353 5354
5540 5546 5547 5544 5542 5539 5536 5531 5526 5520 5513 5507 5500 5494 5486 5479 5474 5468 5463 5456 5450 5442 5436 5431 5423 5414 5407 5403 5397 5391 5385 5380 5375 5371 5368 5363 5358 5354 5351 5349 5347 5346 5346 5347
5535 5537 5534 5533 5530 5527 5522 5516 5511 5505 5500 5494 5487 5480 5473 5466 5460 5454 5448 5442 5435 5428 5422 5417 5411 5404 5396 5390 5383 5378 5373 5369 5365 5361 5357 5355 5352 5347 5344 5343 5339 5340 5341 5339
5534 5531 5523 5521 5519 5514 5508 5503 5497 5491 5485 5479 5473 5466 5460 5453 5447 5441 5435 5429 5422 5416 5410 5406 5399 5393 5386 5378 5371 5365 5362 5359 5355 5351 5348 5346 5345 5345 5342 5339 5339 5337 5336 5335
5523 5520 5513 5511 5504 5500 5494 5489 5483 5478 5472 5465 5459 5453 5447 5440 5435 5429 5422 5416 5411 5406 5400 5394 5388 5381 5375 5368 5361 5354 5350 5347 5345 5342 5339 5337 5336 5336 5338 5340 5336 5334 5332 5331
5509 5506 5500 5496 5489 5485 5481 5476 5470 5464 5458 5452 5446 5441 5434 5428 5423 5417 5411 5406 5401 5394 5388 5382 5376 5371 5365 5359 5352 5347 5342 5339 5337 5334 5331 5330 5329 5328 5327 5328 5331 5331 5329 5326
5496 5494 5488 5482 5476 5472 5467 5461 5456 5449 5445 5440 5435 5429 5423 5417 5412 5408 5402 5396 5390 5383 5378 5372 5366 5362 5356 5350 5344 5339 5335 5332 5329 5327 5325 5324 5323 5322 5321 5320 5321 5322 5323 5322
5482 5477 5473 5469 5464 5460 5455 5450 5443 5438 5433 5429 5424 5419 5413 5407 5402 5397 5391 5384 5377 5373 5368 5362 5358 5353 5348 5342 5337 5333 5329 5326 5324 5322 5320 5319 5317 5316 5315 5315 5315 5315 5315 5314
5469 5465 5461 5456 5452 5447 5442 5436 5430 5426 5421 5417 5413 5409 5403 5396 5392 5388 5383 5376 5368 5362 5356 5351 5349 5345 5339 5333 5328 5325 5322 5320 5319 5316 5314 5312 5311 5310 5310 5309 5309 5309 5308 5307
5459 5456 5451 5446 5438 5433 5429 5425 5419 5415 5410 5408 5403 5397 5390 5385 5381 5378 5373 5366 5359 5354 5349 5343 5340 5336 5332 5326 5322 5319 5316 5314 5312 5310 5309 5307 5306 5306 5305 5304 5303 5303 5304 5303
5446 5442 5437 5432 5427 5421 5416 5412 5409 5404 5400 5395 5390 5385 5380 5374 5369 5365 5359 5353 5347 5346 5345 5338 5334 5330 5325 5321 5318 5314 5311 5309 5308 5306 5304 5303 5302 5300 5299 5299 5299 5299 5298 5298
5432 5428 5424 5419 5415 5409 5405 5401 5397 5393 5389 5383 5378 5373 5369 5365 5358 5353 5348 5343 5338 5335 5335 5331 5327 5323 5319 5315 5313 5310 5307 5304 5302 5301 5299 5298 5297 5296 5295 5295 5294 5294 5293 5293
5417 5414 5410 5406 5402 5399 5394 5390 5385 5381 5378 5372 5365 5361 5358 5355 5348 5341 5336 5337 5337 5330 5326 5324 5320 5316 5312 5311 5310 5305 5301 5299 5297 5295 5294 5293 5292 5292 5291 5290 5290 5290 5289 5289
5403 5400 5397 5393 5389 5387 5383 5378 5373 5369 5365 5360 5354 5349 5344 5342 5338 5333 5329 5325 5327 5324 5320 5316 5312 5310 5308 5308 5304 5299 5296 5294 5292 5291 5289 5288 5287 5287 5287 5286 5286 5286 5285 5284
5389 5387 5383 5380 5376 5373 5370 5365 5360 5355 5351 5347 5343 5338 5334 5331 5327 5323 5325 5322 5317 5315 5312 5309 5306 5306 5305 5302 5297 5294 5291 5289 5287 5286 5285 5284 5283 5282 5282 5282 5282 5281 5281 5280
5376 5373 5369 5365 5360 5356 5355 5354 5349 5345 5340 5336 5332 5326 5321 5320 5320 5316 5312 5312 5310 5307 5304 5302 5301 5300 5298 5294 5290 5288 5286 5284 5283 5282 5281 5281 5279 5278 5278 5278 5278 5277 5277 5276
5361 5357 5353 5349 5345 5344 5342 5340 5336 5333 5328 5326 5323 5318 5313 5308 5307 5308 5304 5301 5300 5299 5296 5294 5293 5292 5289 5285 5283 5282 5281 5279 5279 5279 5278 5277 5276 5275 5275 5274 5274 5274 5274 5273
5346 5343 5340 5337 5332 5330 5327 5324 5322 5320 5317 5316 5315 5310 5305 5301 5298 5296 5295 5293 5291 5290 5289 5287 5284 5283 5281 5279 5278 5277 5276 5276 5275 5273 5273 5273 5272 5272 5272 5272 5271 5271 5271 5270
5332 5329 5326 5325 5322 5317 5313 5310 5308 5307 5304 5301 5302 5301 5296 5293 5290 5288 5286 5285 5284 5282 5281 5279 5278 5276 5275 5274 5273 5273 5272 5271 5271 5270 5270 5269 5269 5269 5269 5269 5269 5268 5268 5268